sat.trackr.live / text

‹ back to catalog

YAOGAN-40 01A

NORAD 57830 · 2023-139A

PAYLOAD ACTIVE UNKNOWN

§ Identity

Operator
Country
PRC
Launch date
2023-09-10
Launch site
TAISC
Launch vehicle
Mass (kg)
RCS (m²)

External: N2YO · Heavens-Above · Gunter

§ Orbital elements

Epoch: 2026-09-22T23:40:26.877216Z

Period
101.95 min
Inclination
85.9934°
Eccentricity
0.0001939
Mean motion
14.12463904 rev/d
Perigee alt
849.6 km
Apogee alt
852.4 km
Semi-major
7,229.1 km
B*
3.4569e-5
RAAN
216.0650°
Arg perigee
87.4023°
Mean anomaly
272.7382°
Rev number
15,650

§ Raw data

YAOGAN-40 01A1 57830U 23139A   26265.98642219  .00000083  00000+0  34569-4 0  99942 57830  85.9934 216.0650 0001939  87.4023 272.7382 14.12463904156501

JSON: /api/v1/satellites/57830 · /tle

For live sub-satellite position, see the globe view (requires WebGL).

§ Visibility from observer

Set your observer location to see the next 7 days of passes ≥ 10°. The values pass through the URL so the page stays shareable.

No JS? Fill the form by hand. The geolocation button needs JavaScript.